Other Public Products
Issued by NWS Charleston, SC

Current Version | Previous Version | Graphics & Text | Print | Product List | Glossary On
Versions: 1 2 3 4 5 6 7 8 9 10 11 12 13 14 15 16 17 18 19 20 21 22 23 24 25 26 27 28 29 30 31 32 33 34 35 36 37 38 39 40 41 42 43 44 45 46 47 48 49 50
528 FPUS82 KCHS 260527 OPUCHS TEST...KCHS/KSAV Gateway Observations...TEST National Weather Service Charleston SC 100 AM EDT SAT MAY 26 2018 NOTE: "fair" indicates few or no clouds below 12,000 feet with no significant weather and/or obstructions to visibility. SCZ050-WAZ558-NCZ071-TXZ119-213-PAZ071-DCZ001-FLZ074-172-MI076- NYZ176-178-MAZ016-IL014-TNZ027-NJZ106-GAZ044-MD014-260600- ...Gateway Observations for Charleston International... CITY SKY/WX TMP DP RH WIND PRES REMARKS Chas Airport FAIR 73 71 93 S3 30.01F Seattle CLOUDY 59 48 67 SW5 30.04R Charlotte PTCLDY 70 70 100 CALM 30.02F Dallas DFW CLOUDY 77 63 61 S8 29.85R Dallas Love CLOUDY 77 66 68 S9 29.85S Philladelphia FAIR 73 63 70 SW8 29.89S Wash National CLOUDY 75 66 73 S8 29.90S Baltimore FAIR 75 66 73 SW6 29.88S Miami CLOUDY 78 74 87 SE10 29.95F Detroit MOCLDY 68 58 70 S3 29.81S Newark FAIR 75 63 66 SW9 29.84S Laguardia FAIR 78 62 57 SW12 29.83S J F K FAIR 68 63 84 SW7 29.86S Boston Logan FAIR 72 58 61 SW13 29.74S Ft. Lauderdale CLOUDY 78 74 87 SE16 29.94F Chicago O`Hare CLOUDY 76 65 68 SW13 29.78F Chicago Midway LGT RAIN 72 69 90 SW9 29.79F Houston Bush FAIR 80 74 81 S7 29.86F Houston Hobby FAIR 77 76 96 S8 29.88F Nashville MOCLDY 73 65 75 S8 29.92S Atlanta CLOUDY 72 69 90 S7 29.99F $$ GAZ044-118-TXZ119-213-NCZ071-DCZ001-MDZ014-506-PAZ021-071-NJZ106- NYZ176-178-MAZ106-OHZ011-021-055-MIZ076-KYZ091-ILZ014-INZ047- MNZ060-ONZ431-260600- ...Gateway Observations for Savannah International... CITY SKY/WX TMP DP RH WIND PRES REMARKS Savannah Arpt FAIR 75 73 93 S6 29.99F Atlanta CLOUDY 72 69 90 S7 29.99F Charlotte PTCLDY 70 70 100 CALM 30.02F Dallas DFW CLOUDY 77 63 61 S8 29.85R Houston Bush FAIR 80 74 81 S7 29.86F Wash National CLOUDY 75 66 73 S8 29.90S Wash Dulles CLOUDY 75 67 76 SW10 29.90S Baltimore FAIR 75 66 73 SW6 29.88S Philadelphia FAIR 73 63 70 SW8 29.89S Newark FAIR 75 63 66 SW9 29.84S Laguardia FAIR 78 62 57 SW12 29.83S J F K FAIR 68 63 84 SW7 29.86S Boston FAIR 72 58 61 SW13 29.74S Pittsburg MOCLDY 72 60 66 CALM 29.88S Akron FAIR 69 53 56 S5 29.88S Cleveland FAIR 66 55 67 S7 29.86R Cincinnati MOCLDY 70 59 68 SW6 29.88S Columbus FAIR 67 59 75 MISG 29.86S Detroit MOCLDY 68 58 70 S3 29.81S Chicago O`Hare CLOUDY 76 65 68 SW13 29.78F Minneapolis FAIR 72 61 68 SW6 29.71S Indianapolis CLOUDY 74 64 71 SW7 29.85F Toronto Canada PTCLDY 70 48 46 SW3 29.76S $$

USA.gov is the U.S. government's official web portal to all federal, state and local government web resources and services.